Location: Zagreb
(45.8000°N, 16.0000°E)
Time: 03:34:02
(UTC+01:00)

deb Explorer IX - Visible Passes

Search period start: 25 January 2020 00:00
Search period end: 04 February 2020 00:00
Orbit: 548 x 1101 km, 38.8° (Epoch: 24 January)

Date Brightness Start Highest point End Pass type
(mag) Time Alt. Az. Time Alt. Az. Time Alt. Az.
26 Jan ? 20:05:57 10° SSW 20:06:21 11° S 20:06:21 11° S visible
27 Jan ? 19:43:37 10° SSW 19:45:33 16° S 19:45:33 16° S visible
28 Jan ? 19:21:16 10° SSW 19:24:43 20° SSE 19:24:43 20° SSE visible
28 Jan ? 21:05:58 10° SW 21:06:05 11° SW 21:06:05 11° SW visible
29 Jan ? 18:58:57 10° SSW 19:03:28 20° SSE 19:03:48 20° SE visible
29 Jan ? 20:43:36 10° SW 20:45:10 18° SW 20:45:10 18° SW visible
30 Jan ? 18:36:39 10° SSW 18:41:02 20° SSE 18:42:50 18° SE visible
30 Jan ? 20:21:16 10° SW 20:24:13 26° SW 20:24:13 26° SW visible
31 Jan ? 18:14:22 10° SSW 18:18:36 20° SSE 18:21:50 14° ESE visible
31 Jan ? 19:58:56 10° SW 20:03:11 35° SSW 20:03:11 35° SSW visible
01 Feb ? 17:52:05 10° S 17:56:10 19° SSE 18:00:37 10° ESE visible
01 Feb ? 19:36:36 10° SW 19:42:07 40° S 19:42:07 40° S visible
01 Feb ? 21:22:51 10° WSW 21:23:28 13° WSW 21:23:28 13° WSW visible
02 Feb ? 17:29:49 10° S 17:33:44 19° SSE 17:38:01 10° ESE visible
02 Feb ? 19:14:18 10° SW 19:19:55 40° SSE 19:21:01 37° SE visible
02 Feb ? 21:00:29 10° WSW 21:02:22 20° WSW 21:02:22 20° WSW visible
03 Feb ? 18:52:00 10° SW 18:57:27 39° SSE 18:59:53 29° ESE visible
03 Feb ? 20:38:09 10° WSW 20:41:13 29° WSW 20:41:13 29° WSW visible
